Time,TemperatureF,DewpointF,PressureIn,WindDirection,WindDirectionDegrees,WindSpeedMPH,WindSpeedGustMPH,Humidity,HourlyPrecipIn,Conditions,Clouds,dailyrainin,SoftwareType,DateUTC
2013-04-04 00:00:00,33.4,18.9,30.34,NE,37,0.0,0.0,55,0.00,,,0.00,Wunderground v.1.15,2013-04-04 04:00:00,
2013-04-04 00:04:00,33.2,18.8,30.34,NE,37,0.0,0.0,55,0.00,,,0.00,Wunderground v.1.15,2013-04-04 04:04:00,
2013-04-04 00:09:00,32.9,18.9,30.34,NE,37,0.0,0.0,56,0.00,,,0.00,Wunderground v.1.15,2013-04-04 04:09:00,
2013-04-04 00:14:00,32.8,18.8,30.34,NE,37,0.0,0.0,56,0.00,,,0.00,Wunderground v.1.15,2013-04-04 04:14:00,
2013-04-04 00:20:00,32.7,18.7,30.33,NE,37,0.0,0.0,56,0.00,,,0.00,Wunderground v.1.15,2013-04-04 04:20:00,
2013-04-04 00:29:00,32.5,18.9,30.33,NE,37,0.0,0.0,57,0.00,,,0.00,Wunderground v.1.15,2013-04-04 04:29:00,
2013-04-04 00:35:00,32.4,18.8,30.33,NE,37,0.0,0.0,57,0.00,,,0.00,Wunderground v.1.15,2013-04-04 04:35:00,
2013-04-04 00:44:00,32.4,18.8,30.33,NE,37,0.0,0.0,57,0.00,,,0.00,Wunderground v.1.15,2013-04-04 04:44:00,
2013-04-04 00:50:00,32.4,18.8,30.33,NE,37,0.0,0.0,57,0.00,,,0.00,Wunderground v.1.15,2013-04-04 04:50:00,
2013-04-04 00:59:00,32.4,19.3,30.33,NE,37,0.0,0.0,58,0.00,,,0.00,Wunderground v.1.15,2013-04-04 04:59:00,
2013-04-04 01:05:00,32.4,20.0,30.33,NE,37,0.0,0.0,60,0.00,,,0.00,Wunderground v.1.15,2013-04-04 05:05:00,
2013-04-04 01:15:00,33.8,19.7,30.33,NE,37,0.0,0.0,56,0.00,,,0.00,Wunderground v.1.15,2013-04-04 05:15:00,
2013-04-04 01:25:00,33.5,19.9,30.33,NE,37,0.0,0.0,57,0.00,,,0.00,Wunderground v.1.15,2013-04-04 05:25:00,
2013-04-04 01:35:00,33.5,18.6,30.33,NE,35,0.0,0.0,54,0.00,,,0.00,Wunderground v.1.15,2013-04-04 05:35:00,
2013-04-04 01:44:00,33.8,17.6,30.33,NE,37,0.0,0.0,51,0.00,,,0.00,Wunderground v.1.15,2013-04-04 05:44:00,
2013-04-04 01:49:00,34.9,16.2,30.32,NE,37,0.0,1.0,46,0.00,,,0.00,Wunderground v.1.15,2013-04-04 05:49:00,
2013-04-04 01:59:00,36.6,15.1,30.32,NE,37,2.0,2.0,41,0.00,,,0.00,Wunderground v.1.15,2013-04-04 05:59:00,
2013-04-04 02:05:00,36.8,15.3,30.32,NE,37,2.0,2.0,41,0.00,,,0.00,Wunderground v.1.15,2013-04-04 06:05:00,
2013-04-04 02:14:00,36.8,15.3,30.32,NE,37,1.0,2.0,41,0.00,,,0.00,Wunderground v.1.15,2013-04-04 06:14:00,
2013-04-04 02:19:00,36.9,14.2,30.31,NNE,32,2.0,2.0,39,0.00,,,0.00,Wunderground v.1.15,2013-04-04 06:19:00,
2013-04-04 02:25:00,36.9,15.4,30.31,NE,44,2.0,2.0,41,0.00,,,0.00,Wunderground v.1.15,2013-04-04 06:25:00,
2013-04-04 02:35:00,36.6,15.1,30.31,ENE,75,1.0,2.0,41,0.00,,,0.00,Wunderground v.1.15,2013-04-04 06:35:00,
2013-04-04 02:45:00,36.5,15.0,30.31,ENE,69,1.0,2.0,41,0.00,,,0.00,Wunderground v.1.15,2013-04-04 06:45:00,
2013-04-04 02:55:00,36.3,14.8,30.30,ENE,61,1.0,1.0,41,0.00,,,0.00,Wunderground v.1.15,2013-04-04 06:55:00,
2013-04-04 03:04:00,36.3,14.8,30.29,NNE,31,2.0,3.0,41,0.00,,,0.00,Wunderground v.1.15,2013-04-04 07:04:00,
2013-04-04 03:09:00,36.3,14.8,30.29,NE,35,2.0,2.0,41,0.00,,,0.00,Wunderground v.1.15,2013-04-04 07:09:00,
2013-04-04 03:15:00,36.3,14.3,30.29,NE,35,2.0,2.0,40,0.00,,,0.00,Wunderground v.1.15,2013-04-04 07:15:00,
2013-04-04 03:25:00,36.2,14.2,30.28,NNE,32,2.0,2.0,40,0.00,,,0.00,Wunderground v.1.15,2013-04-04 07:25:00,
2013-04-04 03:35:00,36.2,14.2,30.28,NNE,32,1.0,2.0,40,0.00,,,0.00,Wunderground v.1.15,2013-04-04 07:35:00,
2013-04-04 03:44:00,36.2,14.2,30.28,NE,47,2.0,2.0,40,0.00,,,0.00,Wunderground v.1.15,2013-04-04 07:44:00,
2013-04-04 03:50:00,36.0,14.5,30.27,NE,47,1.0,1.0,41,0.00,,,0.00,Wunderground v.1.15,2013-04-04 07:50:00,
2013-04-04 03:59:00,35.9,13.9,30.27,NE,44,2.0,3.0,40,0.00,,,0.00,Wunderground v.1.15,2013-04-04 07:59:00,
2013-04-04 04:09:00,35.9,13.9,30.26,NE,44,2.0,2.0,40,0.00,,,0.00,Wunderground v.1.15,2013-04-04 08:09:00,
2013-04-04 04:14:00,35.9,13.9,30.26,NE,48,3.0,3.0,40,0.00,,,0.00,Wunderground v.1.15,2013-04-04 08:14:00,
2013-04-04 04:20:00,35.8,14.4,30.26,NE,48,2.0,3.0,41,0.00,,,0.00,Wunderground v.1.15,2013-04-04 08:20:00,
2013-04-04 04:30:00,35.6,14.2,30.26,NE,54,2.0,2.0,41,0.00,,,0.00,Wunderground v.1.15,2013-04-04 08:30:00,
2013-04-04 04:35:00,35.6,14.2,30.25,NE,35,2.0,2.0,41,0.00,,,0.00,Wunderground v.1.15,2013-04-04 08:35:00,
2013-04-04 04:45:00,35.5,14.6,30.25,ENE,73,2.0,3.0,42,0.00,,,0.00,Wunderground v.1.15,2013-04-04 08:45:00,
2013-04-04 04:55:00,35.5,14.1,30.26,NNE,27,2.0,3.0,41,0.00,,,0.00,Wunderground v.1.15,2013-04-04 08:55:00,
2013-04-04 05:05:00,35.3,13.9,30.25,NE,38,2.0,3.0,41,0.00,,,0.00,Wunderground v.1.15,2013-04-04 09:05:00,
2013-04-04 05:14:00,35.2,14.4,30.25,NE,38,2.0,3.0,42,0.00,,,0.00,Wunderground v.1.15,2013-04-04 09:14:00,
2013-04-04 05:19:00,35.2,14.4,30.25,NNE,27,2.0,2.0,42,0.00,,,0.00,Wunderground v.1.15,2013-04-04 09:19:00,
2013-04-04 05:29:00,35.0,14.2,30.25,NNE,31,2.0,2.0,42,0.00,,,0.00,Wunderground v.1.15,2013-04-04 09:29:00,
2013-04-04 05:35:00,34.9,14.1,30.25,NNE,31,1.0,2.0,42,0.00,,,0.00,Wunderground v.1.15,2013-04-04 09:35:00,
2013-04-04 05:44:00,34.7,15.0,30.25,NNE,31,0.0,0.0,44,0.00,,,0.00,Wunderground v.1.15,2013-04-04 09:44:00,
2013-04-04 05:50:00,34.6,14.4,30.25,NNE,31,0.0,1.0,43,0.00,,,0.00,Wunderground v.1.15,2013-04-04 09:50:00,
2013-04-04 05:59:00,34.6,14.4,30.25,NE,38,1.0,1.0,43,0.00,,,0.00,Wunderground v.1.15,2013-04-04 09:59:00,
2013-04-04 06:09:00,34.4,14.7,30.25,NE,38,0.0,0.0,44,0.00,,,0.00,Wunderground v.1.15,2013-04-04 10:09:00,
2013-04-04 06:19:00,34.6,14.9,30.24,NE,38,1.0,1.0,44,0.00,,,0.00,Wunderground v.1.15,2013-04-04 10:19:00,
2013-04-04 06:24:00,34.4,15.2,30.24,NE,38,1.0,1.0,45,0.00,,,0.00,Wunderground v.1.15,2013-04-04 10:24:00,
2013-04-04 06:30:00,34.4,14.7,30.24,NE,37,1.0,1.0,44,0.00,,,0.00,Wunderground v.1.15,2013-04-04 10:30:00,
2013-04-04 06:40:00,34.3,15.1,30.24,NE,37,1.0,1.0,45,0.00,,,0.00,Wunderground v.1.15,2013-04-04 10:40:00,
2013-04-04 06:45:00,34.1,14.4,30.24,NE,38,1.0,1.0,44,0.00,,,0.00,Wunderground v.1.15,2013-04-04 10:45:00,
2013-04-04 06:54:00,34.0,14.9,30.23,NE,40,1.0,1.0,45,0.00,,,0.00,Wunderground v.1.15,2013-04-04 10:54:00,
2013-04-04 07:00:00,34.0,14.9,30.23,NE,35,1.0,2.0,45,0.00,,,0.00,Wunderground v.1.15,2013-04-04 11:00:00,
2013-04-04 07:09:00,33.8,14.7,30.23,NE,35,1.0,1.0,45,0.00,,,0.00,Wunderground v.1.15,2013-04-04 11:09:00,
2013-04-04 07:19:00,33.7,14.6,30.24,NE,35,0.0,0.0,45,0.00,,,0.00,Wunderground v.1.15,2013-04-04 11:19:00,
2013-04-04 07:24:00,33.5,14.9,30.24,NE,35,1.0,1.0,46,0.00,,,0.00,Wunderground v.1.15,2013-04-04 11:24:00,
2013-04-04 07:29:00,33.5,14.9,30.24,NE,35,1.0,1.0,46,0.00,,,0.00,Wunderground v.1.15,2013-04-04 11:29:00,
2013-04-04 07:35:00,33.7,14.6,30.23,NE,38,1.0,1.0,45,0.00,,,0.00,Wunderground v.1.15,2013-04-04 11:35:00,
2013-04-04 07:44:00,33.7,15.1,30.23,NE,37,1.0,1.0,46,0.00,,,0.00,Wunderground v.1.15,2013-04-04 11:44:00,
2013-04-04 07:50:00,33.7,15.1,30.23,NE,40,1.0,2.0,46,0.00,,,0.00,Wunderground v.1.15,2013-04-04 11:50:00,
2013-04-04 08:00:00,33.8,15.2,30.23,ENE,73,1.0,1.0,46,0.00,,,0.00,Wunderground v.1.15,2013-04-04 12:00:00,
2013-04-04 08:10:00,34.1,15.5,30.23,ENE,73,1.0,1.0,46,0.00,,,0.00,Wunderground v.1.15,2013-04-04 12:10:00,
2013-04-04 08:20:00,34.3,15.6,30.23,NE,44,1.0,1.0,46,0.00,,,0.00,Wunderground v.1.15,2013-04-04 12:20:00,
2013-04-04 08:29:00,34.6,15.9,30.23,NE,45,1.0,1.0,46,0.00,,,0.00,Wunderground v.1.15,2013-04-04 12:29:00,
2013-04-04 08:39:00,35.0,16.3,30.23,NE,45,0.0,2.0,46,0.00,,,0.00,Wunderground v.1.15,2013-04-04 12:39:00,
2013-04-04 08:45:00,35.2,16.0,30.23,NE,45,0.0,2.0,45,0.00,,,0.00,Wunderground v.1.15,2013-04-04 12:45:00,
2013-04-04 08:50:00,35.5,15.7,30.23,NE,35,1.0,3.0,44,0.00,,,0.00,Wunderground v.1.15,2013-04-04 12:50:00,
2013-04-04 09:00:00,35.9,16.6,30.23,NE,52,2.0,2.0,45,0.00,,,0.00,Wunderground v.1.15,2013-04-04 13:00:00,
2013-04-04 09:09:00,36.0,15.6,30.22,NE,34,2.0,2.0,43,0.00,,,0.00,Wunderground v.1.15,2013-04-04 13:09:00,
2013-04-04 09:19:00,36.3,16.4,30.21,NE,38,2.0,2.0,44,0.00,,,0.00,Wunderground v.1.15,2013-04-04 13:19:00,
2013-04-04 09:24:00,36.8,17.4,30.21,NE,34,2.0,2.0,45,0.00,,,0.00,Wunderground v.1.15,2013-04-04 13:24:00,
2013-04-04 09:30:00,37.2,16.7,30.21,NE,34,2.0,2.0,43,0.00,,,0.00,Wunderground v.1.15,2013-04-04 13:30:00,
2013-04-04 09:39:00,37.5,15.9,30.21,NNE,24,2.0,2.0,41,0.00,,,0.00,Wunderground v.1.15,2013-04-04 13:39:00,
2013-04-04 09:49:00,38.0,16.4,30.20,NNE,24,3.0,7.0,41,0.00,,,0.00,Wunderground v.1.15,2013-04-04 13:49:00,
2013-04-04 09:59:00,38.8,16.5,30.20,NNE,32,3.0,3.0,40,0.00,,,0.00,Wunderground v.1.15,2013-04-04 13:59:00,
2013-04-04 10:05:00,38.9,16.6,30.19,NNE,20,2.0,3.0,40,0.00,,,0.00,Wunderground v.1.15,2013-04-04 14:05:00,
2013-04-04 10:14:00,39.6,17.8,30.19,NNE,21,2.0,5.0,41,0.00,,,0.00,Wunderground v.1.15,2013-04-04 14:14:00,
2013-04-04 10:19:00,39.9,16.3,30.18,NNE,23,3.0,4.0,38,0.00,,,0.00,Wunderground v.1.15,2013-04-04 14:19:00,
2013-04-04 10:30:00,40.3,17.3,30.18,NE,45,2.0,3.0,39,0.00,,,0.00,Wunderground v.1.15,2013-04-04 14:30:00,
2013-04-04 10:39:00,40.9,16.6,30.17,NNE,31,2.0,3.0,37,0.00,,,0.00,Wunderground v.1.15,2013-04-04 14:39:00,
2013-04-04 10:44:00,41.1,16.1,30.17,NE,35,3.0,4.0,36,0.00,,,0.00,Wunderground v.1.15,2013-04-04 14:44:00,
2013-04-04 10:49:00,41.2,16.2,30.16,NE,52,3.0,3.0,36,0.00,,,0.00,Wunderground v.1.15,2013-04-04 14:49:00,
2013-04-04 11:00:00,42.2,17.8,30.16,ENE,66,2.0,3.0,37,0.00,,,0.00,Wunderground v.1.15,2013-04-04 15:00:00,
2013-04-04 11:05:00,42.8,17.7,30.15,ENE,71,2.0,3.0,36,0.00,,,0.00,Wunderground v.1.15,2013-04-04 15:05:00,
2013-04-04 11:14:00,43.3,17.4,30.15,ENE,64,2.0,3.0,35,0.00,,,0.00,Wunderground v.1.15,2013-04-04 15:14:00,
2013-04-04 11:20:00,44.1,18.8,30.15,ENE,66,2.0,3.0,36,0.00,,,0.00,Wunderground v.1.15,2013-04-04 15:20:00,
2013-04-04 11:29:00,45.7,17.5,30.15,NE,55,2.0,2.0,32,0.00,,,0.00,Wunderground v.1.15,2013-04-04 15:29:00,
2013-04-04 11:39:00,46.4,19.5,30.14,ENE,64,1.0,3.0,34,0.00,,,0.00,Wunderground v.1.15,2013-04-04 15:39:00,
2013-04-04 11:45:00,46.7,19.1,30.14,East,93,2.0,3.0,33,0.00,,,0.00,Wunderground v.1.15,2013-04-04 15:45:00,
2013-04-04 11:54:00,47.7,18.5,30.14,SSE,165,2.0,4.0,31,0.00,,,0.00,Wunderground v.1.15,2013-04-04 15:54:00,
2013-04-04 12:00:00,48.0,18.0,30.14,ESE,121,1.0,1.0,30,0.00,,,0.00,Wunderground v.1.15,2013-04-04 16:00:00,
2013-04-04 12:10:00,48.0,18.8,30.14,ESE,123,1.0,1.0,31,0.00,,,0.00,Wunderground v.1.15,2013-04-04 16:10:00,
2013-04-04 12:19:00,47.4,17.5,30.14,SE,124,2.0,3.0,30,0.00,,,0.00,Wunderground v.1.15,2013-04-04 16:19:00,
2013-04-04 12:29:00,47.3,18.1,30.14,SE,124,1.0,1.0,31,0.00,,,0.00,Wunderground v.1.15,2013-04-04 16:29:00,
2013-04-04 12:39:00,47.6,17.6,30.14,SE,124,2.0,2.0,30,0.00,,,0.00,Wunderground v.1.15,2013-04-04 16:39:00,
2013-04-04 12:44:00,47.6,18.4,30.14,SE,124,2.0,4.0,31,0.00,,,0.00,Wunderground v.1.15,2013-04-04 16:44:00,
2013-04-04 12:50:00,47.7,19.2,30.14,SE,126,1.0,1.0,32,0.00,,,0.00,Wunderground v.1.15,2013-04-04 16:50:00,
2013-04-04 12:55:00,48.0,18.8,30.14,SE,126,1.0,1.0,31,0.00,,,0.00,Wunderground v.1.15,2013-04-04 16:55:00,
2013-04-04 13:00:00,48.3,19.8,30.14,SE,126,1.0,1.0,32,0.00,,,0.00,Wunderground v.1.15,2013-04-04 17:00:00,
2013-04-04 13:09:00,48.3,19.0,30.13,SE,126,1.0,2.0,31,0.00,,,0.00,Wunderground v.1.15,2013-04-04 17:09:00,
2013-04-04 13:15:00,48.6,18.5,30.13,SE,126,1.0,2.0,30,0.00,,,0.00,Wunderground v.1.15,2013-04-04 17:15:00,
2013-04-04 13:24:00,49.2,20.6,30.11,ESE,121,1.0,3.0,32,0.00,,,0.00,Wunderground v.1.15,2013-04-04 17:24:00,
2013-04-04 13:30:00,49.1,19.7,30.11,ESE,121,2.0,3.0,31,0.00,,,0.00,Wunderground v.1.15,2013-04-04 17:30:00,
2013-04-04 13:40:00,49.4,20.0,30.11,ESE,120,1.0,1.0,31,0.00,,,0.00,Wunderground v.1.15,2013-04-04 17:40:00,
2013-04-04 13:49:00,49.6,20.2,30.10,ESE,121,2.0,2.0,31,0.00,,,0.00,Wunderground v.1.15,2013-04-04 17:49:00,
2013-04-04 13:55:00,49.8,19.6,30.10,ESE,121,2.0,3.0,30,0.00,,,0.00,Wunderground v.1.15,2013-04-04 17:55:00,
2013-04-04 14:04:00,50.1,20.6,30.09,East,93,2.0,2.0,31,0.00,,,0.00,Wunderground v.1.15,2013-04-04 18:04:00,
2013-04-04 14:09:00,50.4,20.1,30.09,East,93,2.0,3.0,30,0.00,,,0.00,Wunderground v.1.15,2013-04-04 18:09:00,
2013-04-04 14:14:00,50.5,20.9,30.09,East,92,2.0,3.0,31,0.00,,,0.00,Wunderground v.1.15,2013-04-04 18:14:00,
2013-04-04 14:20:00,50.7,20.4,30.08,East,92,2.0,2.0,30,0.00,,,0.00,Wunderground v.1.15,2013-04-04 18:20:00,
2013-04-04 14:29:00,51.3,20.9,30.08,East,92,1.0,1.0,30,0.00,,,0.00,Wunderground v.1.15,2013-04-04 18:29:00,
2013-04-04 14:39:00,51.3,20.1,30.08,ESE,102,1.0,1.0,29,0.00,,,0.00,Wunderground v.1.15,2013-04-04 18:39:00,
2013-04-04 14:45:00,51.1,20.7,30.08,South,178,2.0,2.0,30,0.00,,,0.00,Wunderground v.1.15,2013-04-04 18:45:00,
2013-04-04 14:55:00,51.3,20.9,30.06,SSE,161,1.0,6.0,30,0.00,,,0.00,Wunderground v.1.15,2013-04-04 18:55:00,
2013-04-04 15:05:00,51.3,20.1,30.06,ESE,117,2.0,2.0,29,0.00,,,0.00,Wunderground v.1.15,2013-04-04 19:05:00,
2013-04-04 15:14:00,51.6,20.3,30.06,SSE,147,1.0,2.0,29,0.00,,,0.00,Wunderground v.1.15,2013-04-04 19:14:00,
2013-04-04 15:20:00,51.7,22.0,30.05,SSE,147,0.0,2.0,31,0.00,,,0.00,Wunderground v.1.15,2013-04-04 19:20:00,
2013-04-04 15:29:00,52.2,20.9,30.05,SE,127,1.0,2.0,29,0.00,,,0.00,Wunderground v.1.15,2013-04-04 19:29:00,
2013-04-04 15:39:00,52.5,20.3,30.05,ESE,109,1.0,2.0,28,0.00,,,0.00,Wunderground v.1.15,2013-04-04 19:39:00,
2013-04-04 15:45:00,52.6,21.2,30.05,ESE,109,1.0,2.0,29,0.00,,,0.00,Wunderground v.1.15,2013-04-04 19:45:00,
2013-04-04 15:55:00,52.9,21.5,30.04,ESE,109,1.0,1.0,29,0.00,,,0.00,Wunderground v.1.15,2013-04-04 19:55:00,
2013-04-04 16:04:00,53.3,21.8,30.04,ESE,109,0.0,0.0,29,0.00,,,0.00,Wunderground v.1.15,2013-04-04 20:04:00,
2013-04-04 16:09:00,53.6,21.2,30.04,ESE,109,0.0,0.0,28,0.00,,,0.00,Wunderground v.1.15,2013-04-04 20:09:00,
2013-04-04 16:14:00,53.8,21.4,30.04,ESE,109,0.0,0.0,28,0.00,,,0.00,Wunderground v.1.15,2013-04-04 20:14:00,
2013-04-04 16:20:00,53.8,21.4,30.04,ESE,109,0.0,0.0,28,0.00,,,0.00,Wunderground v.1.15,2013-04-04 20:20:00,
2013-04-04 16:29:00,53.9,22.3,30.04,ESE,109,0.0,0.0,29,0.00,,,0.00,Wunderground v.1.15,2013-04-04 20:29:00,
2013-04-04 16:34:00,53.9,22.3,30.03,ESE,109,0.0,0.0,29,0.00,,,0.00,Wunderground v.1.15,2013-04-04 20:34:00,
2013-04-04 16:40:00,53.9,21.5,30.03,ESE,109,0.0,0.0,28,0.00,,,0.00,Wunderground v.1.15,2013-04-04 20:40:00,
2013-04-04 16:50:00,54.2,22.6,30.03,ESE,109,0.0,0.0,29,0.00,,,0.00,Wunderground v.1.15,2013-04-04 20:50:00,
2013-04-04 17:00:00,54.4,21.9,30.03,ESE,109,0.0,0.0,28,0.00,,,0.00,Wunderground v.1.15,2013-04-04 21:00:00,
2013-04-04 17:09:00,54.2,21.8,30.03,SE,126,0.0,1.0,28,0.00,,,0.00,Wunderground v.1.15,2013-04-04 21:09:00,
2013-04-04 17:15:00,54.1,20.8,30.03,SE,126,1.0,1.0,27,0.00,,,0.00,Wunderground v.1.15,2013-04-04 21:15:00,
2013-04-04 17:20:00,54.1,21.7,30.02,SE,126,0.0,0.0,28,0.00,,,0.00,Wunderground v.1.15,2013-04-04 21:20:00,
2013-04-04 17:30:00,54.2,21.8,30.02,SE,126,0.0,1.0,28,0.00,,,0.00,Wunderground v.1.15,2013-04-04 21:30:00,
2013-04-04 17:39:00,54.2,21.8,30.02,SE,126,0.0,1.0,28,0.00,,,0.00,Wunderground v.1.15,2013-04-04 21:39:00,
2013-04-04 17:49:00,54.1,21.7,30.02,SE,126,0.0,0.0,28,0.00,,,0.00,Wunderground v.1.15,2013-04-04 21:49:00,
2013-04-04 17:55:00,54.1,20.8,30.02,SE,126,0.0,0.0,27,0.00,,,0.00,Wunderground v.1.15,2013-04-04 21:55:00,
2013-04-04 18:04:00,54.1,21.7,30.02,SE,126,0.0,0.0,28,0.00,,,0.00,Wunderground v.1.15,2013-04-04 22:04:00,
2013-04-04 18:10:00,54.1,21.7,30.02,SE,126,0.0,0.0,28,0.00,,,0.00,Wunderground v.1.15,2013-04-04 22:10:00,
2013-04-04 18:20:00,53.9,21.5,30.02,SE,126,0.0,0.0,28,0.00,,,0.00,Wunderground v.1.15,2013-04-04 22:20:00,
2013-04-04 18:30:00,53.9,21.5,30.02,SE,126,0.0,0.0,28,0.00,,,0.00,Wunderground v.1.15,2013-04-04 22:30:00,
2013-04-04 18:39:00,53.8,22.2,30.02,SE,126,0.0,0.0,29,0.00,,,0.00,Wunderground v.1.15,2013-04-04 22:39:00,
2013-04-04 18:45:00,53.8,23.1,30.02,SE,126,0.0,0.0,30,0.00,,,0.00,Wunderground v.1.15,2013-04-04 22:45:00,
2013-04-04 18:50:00,53.6,22.9,30.02,SE,126,0.0,0.0,30,0.00,,,0.00,Wunderground v.1.15,2013-04-04 22:50:00,
2013-04-04 18:59:00,53.3,21.8,30.02,SE,128,1.0,1.0,29,0.00,,,0.00,Wunderground v.1.15,2013-04-04 22:59:00,
2013-04-04 19:04:00,53.3,22.6,30.02,SE,131,1.0,1.0,30,0.00,,,0.00,Wunderground v.1.15,2013-04-04 23:04:00,
2013-04-04 19:10:00,53.2,22.5,30.02,SE,131,1.0,1.0,30,0.00,,,0.00,Wunderground v.1.15,2013-04-04 23:10:00,
2013-04-04 19:20:00,53.3,22.6,30.01,SSE,155,1.0,4.0,30,0.00,,,0.00,Wunderground v.1.15,2013-04-04 23:20:00,
2013-04-04 19:29:00,52.6,24.3,30.01,SSE,155,4.0,4.0,33,0.00,,,0.00,Wunderground v.1.15,2013-04-04 23:29:00,
2013-04-04 19:35:00,52.0,27.1,30.01,SSE,147,5.0,5.0,38,0.00,,,0.00,Wunderground v.1.15,2013-04-04 23:35:00,
2013-04-04 19:44:00,51.0,29.3,30.01,SE,145,4.0,5.0,43,0.00,,,0.00,Wunderground v.1.15,2013-04-04 23:44:00,
2013-04-04 19:49:00,50.7,30.1,30.01,SE,141,4.0,4.0,45,0.00,,,0.00,Wunderground v.1.15,2013-04-04 23:49:00,
2013-04-04 19:59:00,50.2,31.2,30.01,South,169,3.0,3.0,48,0.00,,,0.00,Wunderground v.1.15,2013-04-04 23:59:00,
2013-04-04 20:09:00,49.4,34.3,30.01,SSE,152,3.0,3.0,56,0.00,,,0.00,Wunderground v.1.15,2013-04-05 00:09:00,
2013-04-04 20:19:00,48.3,36.7,30.01,SE,134,3.0,8.0,64,0.00,,,0.00,Wunderground v.1.15,2013-04-05 00:19:00,
2013-04-04 20:29:00,47.0,37.7,30.01,South,172,3.0,3.0,70,0.00,,,0.00,Wunderground v.1.15,2013-04-05 00:29:00,
2013-04-04 20:35:00,46.5,38.3,30.02,SSE,162,4.0,4.0,73,0.00,,,0.00,Wunderground v.1.15,2013-04-05 00:35:00,
2013-04-04 20:45:00,46.1,38.6,30.02,SSE,165,2.0,3.0,75,0.00,,,0.00,Wunderground v.1.15,2013-04-05 00:45:00,
2013-04-04 20:55:00,45.8,38.7,30.02,ESE,120,1.0,3.0,76,0.00,,,0.00,Wunderground v.1.15,2013-04-05 00:55:00,
2013-04-04 21:04:00,45.2,38.7,30.02,SSE,152,3.0,3.0,78,0.00,,,0.00,Wunderground v.1.15,2013-04-05 01:04:00,
2013-04-04 21:10:00,45.1,38.6,30.02,SSE,165,3.0,4.0,78,0.00,,,0.00,Wunderground v.1.15,2013-04-05 01:10:00,
2013-04-04 21:20:00,44.8,38.7,30.02,SSE,162,2.0,2.0,79,0.00,,,0.00,Wunderground v.1.15,2013-04-05 01:20:00,
2013-04-04 21:30:00,44.5,38.4,30.02,SSE,162,1.0,1.0,79,0.00,,,0.00,Wunderground v.1.15,2013-04-05 01:30:00,
2013-04-04 21:39:00,44.5,38.7,30.02,SSE,162,0.0,0.0,80,0.00,,,0.00,Wunderground v.1.15,2013-04-05 01:39:00,
2013-04-04 21:49:00,44.3,38.5,30.03,SSE,162,0.0,1.0,80,0.00,,,0.00,Wunderground v.1.15,2013-04-05 01:49:00,
2013-04-04 21:59:00,44.2,38.7,30.03,SSE,157,2.0,3.0,81,0.00,,,0.00,Wunderground v.1.15,2013-04-05 01:59:00,
2013-04-04 22:04:00,44.1,38.6,30.02,SSE,157,2.0,3.0,81,0.00,,,0.00,Wunderground v.1.15,2013-04-05 02:04:00,
2013-04-04 22:10:00,44.1,38.6,30.02,SSE,157,1.0,1.0,81,0.00,,,0.00,Wunderground v.1.15,2013-04-05 02:10:00,
2013-04-04 22:20:00,43.9,38.8,30.02,SSE,157,1.0,1.0,82,0.00,,,0.00,Wunderground v.1.15,2013-04-05 02:20:00,
2013-04-04 22:29:00,43.9,38.8,30.02,SSE,157,1.0,1.0,82,0.00,,,0.00,Wunderground v.1.15,2013-04-05 02:29:00,
2013-04-04 22:39:00,43.8,39.0,30.01,SSE,157,0.0,0.0,83,0.00,,,0.00,Wunderground v.1.15,2013-04-05 02:39:00,
2013-04-04 22:50:00,43.6,38.8,30.01,SSE,157,0.0,0.0,83,0.00,,,0.00,Wunderground v.1.15,2013-04-05 02:50:00,
2013-04-04 22:59:00,43.5,38.7,30.01,SSE,157,0.0,0.0,83,0.00,,,0.00,Wunderground v.1.15,2013-04-05 02:59:00,
2013-04-04 23:09:00,43.3,38.8,30.01,SSE,157,0.0,0.0,84,0.00,,,0.00,Wunderground v.1.15,2013-04-05 03:09:00,
2013-04-04 23:15:00,43.3,38.8,30.01,SSE,157,0.0,0.0,84,0.00,,,0.00,Wunderground v.1.15,2013-04-05 03:15:00,
2013-04-04 23:24:00,43.2,38.7,30.01,SSE,157,0.0,0.0,84,0.00,,,0.00,Wunderground v.1.15,2013-04-05 03:24:00,
2013-04-04 23:34:00,43.1,38.9,30.00,SSE,157,0.0,0.0,85,0.00,,,0.00,Wunderground v.1.15,2013-04-05 03:34:00,
2013-04-04 23:40:00,43.1,38.9,30.00,SSE,157,0.0,0.0,85,0.00,,,0.00,Wunderground v.1.15,2013-04-05 03:40:00,
2013-04-04 23:49:00,43.1,38.9,30.00,SSE,157,0.0,0.0,85,0.00,,,0.00,Wunderground v.1.15,2013-04-05 03:49:00,